User: anonymous   Login
Location: ???????
(55.8719°N, 38.1523°E)
Time: 22:43:20
(UTC+00:00)
Language:

BlueWalker 3 - Orbit

View from above orbital plane
View from above orbital plane
View from above satellite
View from above satellite

Ground track
Ground track

The orbit data is extracted from the following two-line orbital elements,

1 53807U 22111AL  24168.80377719  .00006011  00000-0  24206-3 0  9998
2 53807  53.2372 195.3903 0009764  89.9095 270.3024 15.26212767 98175
Epoch (UTC): 16 June 2024 19:17:26
Eccentricity: 0.0009764
inclination: 53.2372°
perigee height: 480 km
apogee height: 494 km
right ascension of ascending node: 195.3903°
argument of perigee: 89.9095°
revolutions per day: 15.26212767
mean anomaly at epoch: 270.3024°
orbit number at epoch: 9817

The dashed part of the orbit path shows where the satellite is in the earth's shadow,  

DLR